Bloomington, IL

6:05 AM CDT on September 29, 2016 (GMT -0500)
Central Ill Regional

Weather History for KBMI - May, 2013

Change the Weather History Date:

Sunday, May 19, 2013

  Actual Average Record
Temperature  
Mean Temperature 74 °F -  
Max Temperature 88 °F 79 °F 90 °F (2012)
Min Temperature 61 °F 44 °F 44 °F (1976)
Cooling Degree Days 10    
Growing Degree Days 24 (Base 50)    
Moisture  
Dew Point 66 °F    
Average Humidity 74    
Maximum Humidity 97    
Minimum Humidity 50    
Precipitation  
Precipitation 0.00 in - - ()
Sea Level Pressure  
Sea Level Pressure 29.84 in    
Wind  
Wind Speed 11 mph (SSE)    
Max Wind Speed 23 mph    
Max Gust Speed 31 mph    
Visibility 8 miles    
Events      
Averages and records for this station are not official NWS values.
T = Trace of Precipitation, MM = Missing Value Source: NWS Daily Summary

Daily Weather History Graph

Daily Weather History Graph

Search for Another Location

Airport or City:

Trip Planner

Search our weather history database for the weather conditions in past years. The results will help you decide how hot, cold, wet, or windy it might be!

Date:

Astronomy

May. 19, 2013 Rise Set
Actual Time 5:35 AM CDT 8:09 PM CDT
Civil Twilight 5:04 AM CDT 8:40 PM CDT
Nautical Twilight 4:25 AM CDT 9:20 PM CDT
Astronomical Twilight 3:41 AM CDT 10:04 PM CDT
Moon 2:12 PM CDT (5/19) 2:00 AM CDT (5/19)
Length of Visible Light 15h 36m
Length of Day
14h 33m
Waxing Gibbous, 65% of the Moon is Illuminated
May 19
Waxing Gibbous
May 24
Full
May 31
Last Quarter
Jun 8
New
Jun 16
First Quarter

Hourly Weather History & Observations

Time (CDT) Temp. Heat Index Dew Point Humidity Pressure Visibility Wind Dir Wind Speed Gust Speed Precip Events Conditions
12:56 AM 64.9 °F - 61.0 °F 87% 29.94 in 10.0 mi South 6.9 mph - N/A   Clear
1:56 AM 63.9 °F - 61.0 °F 90% 29.92 in 9.0 mi SSE 5.8 mph - N/A   Clear
2:56 AM 63.9 °F - 61.0 °F 90% 29.92 in 7.0 mi South 5.8 mph - N/A   Clear
3:56 AM 63.0 °F - 61.0 °F 93% 29.92 in 5.0 mi South 5.8 mph - N/A   Clear
4:56 AM 61.9 °F - 61.0 °F 97% 29.91 in 4.0 mi South 8.1 mph - N/A   Clear
5:43 AM 62.6 °F - 60.8 °F 94% 29.95 in 2.0 mi SSE 4.6 mph - N/A   Clear
5:56 AM 61.9 °F - 61.0 °F 97% 29.93 in 2.0 mi SSE 4.6 mph - N/A   Partly Cloudy
6:56 AM 65.8 °F - 63.9 °F 93% 29.91 in 3.0 mi SE 8.1 mph - N/A   Clear
7:56 AM 70.0 °F - 64.9 °F 84% 29.91 in 6.0 mi SSE 9.2 mph - N/A   Haze
8:56 AM 73.9 °F - 65.8 °F 76% 29.90 in 9.0 mi SE 11.5 mph - N/A   Partly Cloudy
9:56 AM 77.0 °F - 65.8 °F 68% 29.88 in 10.0 mi SE 12.7 mph - N/A   Clear
10:56 AM 81.0 °F 83.0 °F 65.8 °F 60% 29.88 in 10.0 mi SSE 13.8 mph 19.6 mph N/A   Clear
11:56 AM 83.8 °F 86.5 °F 66.9 °F 57% 29.89 in 10.0 mi South 18.4 mph - N/A   Scattered Clouds
12:56 PM 86.0 °F 88.8 °F 66.9 °F 53% 29.86 in 10.0 mi South 17.3 mph - N/A   Unknown
1:56 PM 82.9 °F 85.8 °F 68.0 °F 60% 29.83 in 10.0 mi SSE 13.8 mph 23.0 mph N/A   Mostly Cloudy
2:56 PM 88.0 °F 91.4 °F 68.0 °F 51% 29.78 in 10.0 mi SSE 16.1 mph 21.9 mph N/A   Mostly Cloudy
3:56 PM 88.9 °F 92.6 °F 68.0 °F 50% 29.76 in 10.0 mi South 19.6 mph 27.6 mph N/A   Clear
4:56 PM 86.9 °F 90.3 °F 68.0 °F 53% 29.75 in 10.0 mi SSE 23.0 mph 27.6 mph N/A   Mostly Cloudy
5:56 PM 86.9 °F 91.0 °F 68.9 °F 55% 29.73 in 10.0 mi South 20.7 mph 31.1 mph N/A   Scattered Clouds
6:56 PM 83.8 °F 87.5 °F 68.9 °F 61% 29.74 in 9.0 mi South 19.6 mph - N/A   Clear
7:56 PM 81.9 °F 85.6 °F 70.0 °F 67% 29.75 in 9.0 mi South 17.3 mph - N/A   Clear
8:56 PM 79.9 °F - 70.9 °F 74% 29.75 in 8.0 mi South 15.0 mph - N/A   Clear
9:56 PM 79.0 °F - 72.0 °F 79% 29.75 in 7.0 mi SSE 17.3 mph 24.2 mph N/A   Clear
10:56 PM 77.9 °F - 72.0 °F 82% 29.75 in 6.0 mi SSE 19.6 mph - N/A   Haze
11:56 PM 77.0 °F - 66.9 °F 71% 29.78 in 10.0 mi South 17.3 mph - N/A   Clear